Vertical_Velocity
2 4 1 0 0 4 0 -0 -2 -2 3 0 -2 -3 -4 -1 1 1 4 -2 1 1 -4 -2 -3 -6 -0
4 -1 3 2 4 0 1 -1 -3 -7 -5 -2 -2 -4 -3 -0 -1 -2 -7 0 -1 1 -2 -5 -1 -3 1
-2 3 -5 4 -2 -2 -1 -1 1 2 1 -3 -3 -1 -1 2 2 0 -2 -0 -2 -2 -2 -4 -4 2 -0
0 5 1 0 -4 -2 -0 2 1 -3 -3 -0 -4 -7 -5 -4 -1 0 1 -0 0 -0 -3 -6 -4 1 -13
-3 -1 -1 -3 -3 2 -0 4 1 -2 -0 0 -2 -0 1 -1 -1 -3 -4 1 4 -2 -3 -1 -4 0 -3
-2 -7 1 1 -1 2 -1 -2 -1 -3 -2 1 -1 -1 -2 -4 1 -1 -3 -1 -0 -3 -2 1 -4 -2 6
-1 -4 5 3 2 3 -4 -5 -3 -5 3 1 -0 -0 2 -0 -2 -2 -4 1 -3 -2 -3 0 -1 2 8
-2 -1 0 -3 1 7 4 3 0 2 -2 -4 1 1 2 1 3 -1 -6 1 1 -2 1 -2 2 -0 3
3 7 4 -2 -5 9 -6 3 1 -4 1 3 -2 -2 0 2 0 -3 -3 -5 -3 0 3 0 2 0 2
-4 0 -0 -1 1 7 -2 -0 3 0 -1 -1 1 2 -2 0 1 -1 -3 -0 2 -2 2 5 -1 2 -1
2 3 -3 6 1 4 3 -1 -3 -2 -3 -3 -3 4 0 -2 -0 -1 3 -6 0 -3 2 2 -0 2 2
-0 -1 -1 -4 -3 4 -2 -2 1 3 1 2 -1 -2 -0 1 0 -0 -3 -3 -3 5 -1 4 -1 3 -2
-2 -2 -2 6 2 -1 -0 2 3 2 3 -2 1 -1 2 -1 0 -1 0 -5 -2 3 -1 3 3 2 -2
-1 3 7 2 -1 -1 1 7 0 1 2 3 -1 -1 1 1 1 1 -0 -1 -1 -1 2 -1 5 -1 0
-0 -2 5 4 2 2 3 2 1 -1 1 -2 2 -4 -3 1 1 1 0 0 0 2 -4 3 3 0 2
4 2 0 2 3 3 1 3 0 -1 -3 6 0 1 -0 -2 -1 1 1 1 -1 -0 -1 3 2 2 -0
4 0 4 4 3 2 1 2 1 3 -4 7 1 -2 -0 -3 -2 -1 1 3 -1 0 2 3 3 1 -0
Height
1466 1467 1469 1472 1476 1478 1479 1482 1485 1489 1489 1488 1488 1488 1489 1491 1492 1493 1491 1491 1491 1490 1488 1488 1488 1486 1485
1460 1462 1465 1468 1472 1474 1475 1476 1478 1482 1483 1483 1481 1482 1483 1485 1486 1486 1487 1487 1487 1486 1484 1483 1483 1481 1481
1453 1458 1460 1463 1467 1469 1469 1470 1472 1474 1475 1476 1476 1477 1479 1480 1481 1482 1482 1483 1482 1481 1480 1477 1479 1479 1477
1450 1453 1453 1456 1461 1463 1465 1465 1466 1468 1470 1471 1469 1470 1474 1474 1476 1477 1477 1477 1477 1476 1475 1474 1475 1475 1472
1443 1448 1449 1449 1453 1456 1459 1460 1460 1462 1464 1464 1465 1468 1467 1468 1468 1471 1472 1472 1472 1471 1470 1472 1471 1472 1470
1436 1442 1443 1444 1449 1450 1451 1453 1456 1457 1457 1458 1460 1460 1462 1464 1466 1465 1467 1468 1467 1469 1469 1469 1470 1471 1471
1429 1436 1438 1441 1443 1442 1443 1447 1450 1453 1452 1455 1456 1456 1457 1459 1460 1462 1463 1464 1462 1464 1465 1465 1468 1469 1470
1425 1428 1431 1434 1438 1436 1438 1441 1443 1445 1446 1449 1451 1452 1452 1454 1455 1457 1458 1460 1459 1460 1461 1463 1464 1468 1470
1419 1421 1423 1425 1431 1431 1431 1435 1436 1441 1443 1445 1445 1448 1450 1450 1451 1453 1453 1454 1457 1457 1458 1459 1460 1464 1467
1410 1414 1417 1419 1422 1424 1425 1430 1431 1434 1437 1440 1443 1444 1447 1446 1446 1449 1450 1452 1453 1454 1457 1456 1457 1462 1463
1404 1406 1410 1413 1414 1417 1419 1424 1425 1429 1430 1433 1437 1440 1441 1440 1440 1443 1447 1449 1450 1453 1455 1454 1455 1458 1460
1395 1397 1400 1404 1409 1410 1414 1417 1421 1423 1426 1427 1431 1435 1437 1438 1439 1440 1443 1447 1448 1451 1452 1453 1454 1456 1457
1387 1389 1391 1398 1403 1407 1409 1410 1414 1417 1419 1421 1425 1429 1432 1432 1436 1437 1441 1442 1445 1448 1450 1452 1454 1454 1457
1380 1383 1386 1392 1394 1398 1402 1404 1406 1410 1413 1417 1418 1424 1427 1430 1431 1434 1437 1440 1441 1445 1448 1451 1451 1452 1456
1371 1375 1380 1384 1387 1389 1394 1397 1398 1401 1408 1409 1412 1417 1423 1426 1427 1431 1434 1436 1438 1441 1444 1447 1448 1450 1453
1364 1367 1372 1376 1379 1382 1386 1389 1391 1395 1401 1406 1407 1411 1417 1422 1424 1427 1430 1432 1435 1438 1442 1444 1445 1447 1450
1358 1361 1365 1369 1372 1376 1379 1383 1387 1389 1395 1402 1401 1405 1411 1415 1420 1423 1426 1429 1432 1435 1439 1440 1442 1444 1446